• In Belarus
  • List of Countries
  • For 7 days
  • Water Temperature
  • Satellite Maps
  • Weather Map
  • Weather Widgets
  • user-avatar
    Login

    Hourly Weather Schwerin

    Today, 25 March, Monday

    Time Temperature Precipitation Wind Pressure Humidity
    00:00 +1°C° 0 mm 4 mps 758 mmHg 83%
    01:00 0°C° 0 mm 4 mps 758 mmHg 85%
    02:00 +1°C° 0.3 mm 5 mps 757 mmHg 85%
    03:00 +1°C° 0.3 mm 5 mps 756 mmHg 84%
    04:00 +1°C° 0.3 mm 6 mps 755 mmHg 84%
    05:00 +2°C° 0.2 mm 6 mps 754 mmHg 85%
    06:00 +2°C° 0.2 mm 5 mps 754 mmHg 87%
    07:00 +1°C° 0 mm 5 mps 754 mmHg 89%
    08:00 +2°C° 0.1 mm 5 mps 754 mmHg 85%
    09:00 +3°C° 0.1 mm 5 mps 754 mmHg 81%
    10:00 +4°C° 0.1 mm 6 mps 754 mmHg 77%
    11:00 +4°C° 0.3 mm 6 mps 755 mmHg 73%
    12:00 +5°C° 0.3 mm 6 mps 755 mmHg 69%
    13:00 +5°C° 0.3 mm 6 mps 756 mmHg 64%
    14:00 +7°C° 0.1 mm 6 mps 756 mmHg 64%
    15:00 +7°C° 0.1 mm 6 mps 757 mmHg 64%
    16:00 +7°C° 0.1 mm 6 mps 758 mmHg 63%
    17:00 +5°C° 0 mm 6 mps 759 mmHg 70%
    18:00 +5°C° 0 mm 5 mps 759 mmHg 76%
    19:00 +4°C° 0 mm 4 mps 760 mmHg 82%
    20:00 +3°C° 0 mm 4 mps 761 mmHg 85%
    21:00 +3°C° 0 mm 4 mps 762 mmHg 88%
    22:00 +2°C° 0 mm 3 mps 763 mmHg 91%
    23:00 +2°C° 0 mm 3 mps 763 mmHg 92%

    Tomorrow, 26 March, Tuesday

    Time Temperature Precipitation Wind Pressure Humidity
    00:00 +1°C° 0 mm 3 mps 763 mmHg 93%
    01:00 +1°C° 0 mm 3 mps 763 mmHg 94%
    02:00 +1°C° 0 mm 3 mps 763 mmHg 93%
    03:00 -1°C° 0 mm 4 mps 763 mmHg 91%
    04:00 -1°C° 0 mm 4 mps 763 mmHg 90%
    05:00 0°C° 0 mm 5 mps 763 mmHg 90%
    06:00 0°C° 0 mm 5 mps 763 mmHg 91%
    07:00 0°C° 0 mm 5 mps 763 mmHg 91%
    08:00 +2°C° 0 mm 6 mps 763 mmHg 84%
    09:00 +3°C° 0 mm 7 mps 764 mmHg 77%
    10:00 +4°C° 0 mm 7 mps 764 mmHg 69%
    11:00 +4°C° 0 mm 7 mps 764 mmHg 69%
    12:00 +4°C° 0 mm 7 mps 764 mmHg 69%
    13:00 +4°C° 0 mm 6 mps 764 mmHg 69%
    14:00 +5°C° 0 mm 6 mps 764 mmHg 69%
    15:00 +5°C° 0 mm 6 mps 764 mmHg 70%
    16:00 +5°C° 0 mm 6 mps 764 mmHg 70%
    17:00 +5°C° 0 mm 5 mps 764 mmHg 75%
    18:00 +5°C° 0 mm 5 mps 765 mmHg 79%
    19:00 +5°C° 0 mm 4 mps 765 mmHg 83%
    20:00 +5°C° 0 mm 4 mps 765 mmHg 85%
    21:00 +4°C° 0 mm 4 mps 765 mmHg 88%
    22:00 +3°C° 0 mm 5 mps 765 mmHg 90%
    23:00 +4°C° 0 mm 4 mps 766 mmHg 91%

    Day after tomorrow, 27 March, Wednesday

    Time Temperature Precipitation Wind Pressure Humidity
    00:00 +4°C° 0 mm 4 mps 766 mmHg 92%
    01:00 +3°C° 0 mm 4 mps 766 mmHg 94%
    02:00 +4°C° 0.2 mm 4 mps 765 mmHg 94%
    03:00 +3°C° 0.2 mm 5 mps 765 mmHg 94%
    04:00 +3°C° 0.2 mm 5 mps 765 mmHg 93%
    05:00 +3°C° 0.3 mm 5 mps 765 mmHg 93%
    06:00 +3°C° 0.3 mm 5 mps 765 mmHg 93%
    07:00 +3°C° 0.3 mm 5 mps 765 mmHg 93%
    08:00 +5°C° 0.1 mm 5 mps 765 mmHg 92%
    09:00 +5°C° 0.1 mm 5 mps 765 mmHg 92%
    10:00 +6°C° 0.1 mm 5 mps 765 mmHg 91%
    11:00 +7°C° 0 mm 5 mps 765 mmHg 90%
    12:00 +7°C° 0 mm 5 mps 766 mmHg 89%
    13:00 +8°C° 0 mm 5 mps 766 mmHg 88%
    14:00 +8°C° 0.1 mm 5 mps 766 mmHg 89%
    15:00 +8°C° 0.1 mm 5 mps 766 mmHg 89%
    16:00 +8°C° 0.1 mm 4 mps 766 mmHg 89%
    17:00 +8°C° 0 mm 4 mps 766 mmHg 90%
    18:00 +8°C° 0 mm 4 mps 766 mmHg 91%
    19:00 +7°C° 0 mm 4 mps 766 mmHg 92%
    20:00 +7°C° 0 mm 4 mps 767 mmHg 93%
    21:00 +7°C° 0 mm 4 mps 767 mmHg 93%
    22:00 +7°C° 0 mm 4 mps 767 mmHg 93%
    23:00 +6°C° 0 mm 4 mps 768 mmHg 94%

    28 March, Thursday

    Time Temperature Precipitation Wind Pressure Humidity
    00:00 +5°C° 0 mm 4 mps 768 mmHg 95%
    01:00 +5°C° 0 mm 4 mps 768 mmHg 96%
    02:00 +5°C° 0 mm 4 mps 768 mmHg 95%
    03:00 +5°C° 0 mm 4 mps 769 mmHg 95%
    04:00 +5°C° 0 mm 3 mps 769 mmHg 94%
    05:00 +5°C° 0 mm 3 mps 769 mmHg 93%
    06:00 +5°C° 0 mm 3 mps 769 mmHg 93%
    07:00 +5°C° 0 mm 3 mps 770 mmHg 92%
    08:00 +7°C° 0 mm 3 mps 770 mmHg 89%
    09:00 +8°C° 0 mm 3 mps 770 mmHg 86%
    10:00 +8°C° 0 mm 4 mps 771 mmHg 83%
    11:00 +9°C° 0 mm 3 mps 771 mmHg 83%
    12:00 +9°C° 0 mm 3 mps 771 mmHg 84%
    13:00 +9°C° 0 mm 3 mps 771 mmHg 84%
    14:00 +9°C° 0 mm 3 mps 771 mmHg 84%
    15:00 +9°C° 0 mm 3 mps 771 mmHg 85%
    16:00 +9°C° 0 mm 3 mps 771 mmHg 85%
    17:00 +9°C° 0 mm 3 mps 771 mmHg 88%
    18:00 +8°C° 0 mm 2 mps 771 mmHg 90%
    19:00 +8°C° 0 mm 1 mps 771 mmHg 93%
    20:00 +8°C° 0 mm 1 mps 772 mmHg 94%
    21:00 +7°C° 0 mm 2 mps 772 mmHg 95%
    22:00 +7°C° 0 mm 2 mps 772 mmHg 96%
    23:00 +6°C° 0 mm 2 mps 772 mmHg 96%

    29 March, Friday

    Time Temperature Precipitation Wind Pressure Humidity
    00:00 +6°C° 0 mm 2 mps 772 mmHg 96%
    01:00 +6°C° 0 mm 2 mps 772 mmHg 96%
    02:00 +6°C° 0 mm 2 mps 772 mmHg 95%
    03:00 +5°C° 0 mm 2 mps 772 mmHg 95%
    04:00 +5°C° 0 mm 2 mps 772 mmHg 95%
    05:00 +5°C° 0 mm 2 mps 772 mmHg 95%
    06:00 +5°C° 0 mm 2 mps 772 mmHg 95%
    07:00 +5°C° 0 mm 2 mps 772 mmHg 95%
    08:00 +7°C° 0 mm 2 mps 772 mmHg 88%
    09:00 +9°C° 0 mm 2 mps 772 mmHg 82%
    10:00 +12°C° 0 mm 2 mps 772 mmHg 75%
    11:00 +13°C° 0 mm 2 mps 772 mmHg 71%
    12:00 +13°C° 0 mm 3 mps 771 mmHg 67%
    13:00 +16°C° 0 mm 3 mps 771 mmHg 63%
    14:00 +16°C° 0 mm 3 mps 771 mmHg 64%
    15:00 +16°C° 0 mm 3 mps 770 mmHg 64%
    16:00 +16°C° 0 mm 3 mps 770 mmHg 64%
    17:00 +14°C° 0 mm 3 mps 769 mmHg 71%
    18:00 +13°C° 0 mm 2 mps 769 mmHg 78%
    19:00 +10°C° 0 mm 2 mps 769 mmHg 85%
    20:00 +10°C° 0 mm 2 mps 769 mmHg 88%
    21:00 +9°C° 0 mm 2 mps 769 mmHg 90%
    22:00 +8°C° 0 mm 2 mps 769 mmHg 92%
    23:00 +8°C° 0 mm 2 mps 769 mmHg 93%

    30 March, Saturday

    Time Temperature Precipitation Wind Pressure Humidity
    00:00 +7°C° 0 mm 2 mps 769 mmHg 93%
    01:00 +8°C° 0 mm 1 mps 768 mmHg 94%
    02:00 +7°C° 0 mm 2 mps 768 mmHg 94%
    03:00 +7°C° 0 mm 2 mps 768 mmHg 95%
    04:00 +6°C° 0 mm 2 mps 767 mmHg 96%
    05:00 +7°C° 0 mm 2 mps 767 mmHg 96%
    06:00 +7°C° 0 mm 2 mps 767 mmHg 96%
    07:00 +7°C° 0 mm 2 mps 767 mmHg 96%
    08:00 +9°C° 0 mm 3 mps 766 mmHg 88%
    09:00 +11°C° 0 mm 3 mps 766 mmHg 81%
    10:00 +12°C° 0 mm 4 mps 765 mmHg 74%
    11:00 +13°C° 0 mm 4 mps 765 mmHg 69%
    12:00 +14°C° 0 mm 4 mps 764 mmHg 65%
    13:00 +15°C° 0 mm 4 mps 764 mmHg 60%
    14:00 +15°C° 0 mm 4 mps 763 mmHg 60%
    15:00 +15°C° 0 mm 4 mps 762 mmHg 60%
    16:00 +15°C° 0 mm 4 mps 762 mmHg 60%
    17:00 +14°C° 0.1 mm 4 mps 761 mmHg 67%
    18:00 +13°C° 0.1 mm 3 mps 761 mmHg 74%
    19:00 +11°C° 0.1 mm 3 mps 761 mmHg 81%
    20:00 +10°C° 0 mm 3 mps 760 mmHg 84%
    21:00 +9°C° 0 mm 3 mps 760 mmHg 88%
    22:00 +8°C° 0 mm 3 mps 760 mmHg 91%
    23:00 +7°C° 0 mm 3 mps 760 mmHg 92%
    Show more